Time,TemperatureF,DewpointF,PressureIn,WindDirection,WindDirectionDegrees,WindSpeedMPH,WindSpeedGustMPH,Humidity,HourlyPrecipIn,Conditions,Clouds,dailyrainin,SoftwareType,DateUTC
2013-03-04 00:01:00,28.0,19.0,30.25,NNW,330,1.0,5.0,69,0.00,,,0.01,,2013-03-04 05:01:00,
2013-03-04 00:11:00,28.0,19.0,30.25,NNW,330,1.0,5.0,69,0.00,,,0.01,,2013-03-04 05:11:00,
2013-03-04 00:22:00,28.0,20.0,30.26,SSE,156,0.0,3.0,71,0.00,,,0.01,,2013-03-04 05:22:00,
2013-03-04 00:32:00,28.0,20.0,30.25,SSW,198,0.0,6.0,71,0.00,,,0.01,,2013-03-04 05:32:00,
2013-03-04 00:42:00,27.0,20.0,30.26,SW,233,0.0,3.0,74,0.00,,,0.01,,2013-03-04 05:42:00,
2013-03-04 00:52:00,27.0,20.0,30.26,SW,233,0.0,3.0,74,0.00,,,0.01,,2013-03-04 05:52:00,
2013-03-04 01:02:00,27.0,19.0,30.26,ENE,74,1.0,2.0,72,0.00,,,0.01,,2013-03-04 06:02:00,
2013-03-04 01:11:00,27.0,19.0,30.26,ENE,74,1.0,2.0,72,0.00,,,0.01,,2013-03-04 06:11:00,
2013-03-04 01:22:00,27.0,20.0,30.27,ESE,123,0.0,3.0,73,0.00,,,0.01,,2013-03-04 06:22:00,
2013-03-04 01:32:00,27.0,20.0,30.27,SE,146,0.0,3.0,73,0.00,,,0.01,,2013-03-04 06:32:00,
2013-03-04 01:42:00,27.0,20.0,30.27,SE,146,0.0,3.0,73,0.00,,,0.01,,2013-03-04 06:42:00,
2013-03-04 01:52:00,27.0,20.0,30.26,SE,126,0.0,2.0,75,0.00,,,0.01,,2013-03-04 06:52:00,
2013-03-04 02:01:00,26.0,19.0,30.27,ESE,105,0.0,1.0,76,0.00,,,0.01,,2013-03-04 07:01:00,
2013-03-04 02:11:00,26.0,19.0,30.27,ESE,105,0.0,1.0,76,0.00,,,0.01,,2013-03-04 07:11:00,
2013-03-04 02:21:00,26.0,19.0,30.27,ESE,105,0.0,2.0,75,0.00,,,0.01,,2013-03-04 07:21:00,
2013-03-04 02:32:00,26.0,19.0,30.28,ESE,105,0.0,1.0,76,0.00,,,0.01,,2013-03-04 07:32:00,
2013-03-04 02:42:00,26.0,19.0,30.28,ESE,105,0.0,1.0,76,0.00,,,0.01,,2013-03-04 07:42:00,
2013-03-04 02:52:00,26.0,19.0,30.28,ESE,105,0.0,2.0,76,0.00,,,0.01,,2013-03-04 07:52:00,
2013-03-04 03:02:00,26.0,19.0,30.28,SE,128,0.0,1.0,75,0.00,,,0.01,,2013-03-04 08:02:00,
2013-03-04 03:11:00,25.0,19.0,30.28,SE,128,0.0,1.0,77,0.00,,,0.01,,2013-03-04 08:11:00,
2013-03-04 03:22:00,25.0,19.0,30.28,SE,128,0.0,1.0,77,0.00,,,0.01,,2013-03-04 08:22:00,
2013-03-04 03:32:00,25.0,19.0,30.29,SE,128,0.0,1.0,78,0.00,,,0.01,,2013-03-04 08:32:00,
2013-03-04 03:42:00,25.0,19.0,30.29,SE,128,0.0,1.0,78,0.00,,,0.01,,2013-03-04 08:42:00,
2013-03-04 03:52:00,25.0,19.0,30.30,SE,128,0.0,1.0,78,0.00,,,0.01,,2013-03-04 08:52:00,
2013-03-04 04:02:00,25.0,19.0,30.30,SE,128,0.0,2.0,79,0.00,,,0.01,,2013-03-04 09:02:00,
2013-03-04 04:11:00,25.0,19.0,30.30,SE,128,0.0,2.0,79,0.00,,,0.01,,2013-03-04 09:11:00,
2013-03-04 04:22:00,25.0,19.0,30.31,ENE,73,0.0,1.0,79,0.00,,,0.01,,2013-03-04 09:22:00,
2013-03-04 04:32:00,25.0,19.0,30.31,ENE,74,0.0,1.0,78,0.00,,,0.01,,2013-03-04 09:32:00,
2013-03-04 04:42:00,25.0,19.0,30.31,ENE,74,0.0,1.0,78,0.00,,,0.01,,2013-03-04 09:42:00,
2013-03-04 04:52:00,25.0,19.0,30.32,East,96,0.0,1.0,79,0.00,,,0.01,,2013-03-04 09:52:00,
2013-03-04 05:01:00,25.0,19.0,30.32,East,96,0.0,0.0,79,0.00,,,0.01,,2013-03-04 10:01:00,
2013-03-04 05:11:00,25.0,19.0,30.32,East,96,0.0,0.0,79,0.00,,,0.01,,2013-03-04 10:11:00,
2013-03-04 05:22:00,25.0,20.0,30.33,NE,41,0.0,1.0,80,0.00,,,0.01,,2013-03-04 10:22:00,
2013-03-04 05:32:00,24.0,19.0,30.32,NE,38,0.0,1.0,80,0.00,,,0.01,,2013-03-04 10:32:00,
2013-03-04 05:42:00,24.0,19.0,30.33,NW,323,0.0,2.0,82,0.00,,,0.01,,2013-03-04 10:42:00,
2013-03-04 05:52:00,24.0,19.0,30.33,NW,323,0.0,2.0,82,0.00,,,0.01,,2013-03-04 10:52:00,
2013-03-04 06:02:00,24.0,19.0,30.34,NW,323,0.0,1.0,81,0.00,,,0.01,,2013-03-04 11:02:00,
2013-03-04 06:11:00,24.0,19.0,30.34,NW,323,0.0,1.0,81,0.00,,,0.01,,2013-03-04 11:11:00,
2013-03-04 06:22:00,24.0,19.0,30.35,NW,323,0.0,1.0,82,0.00,,,0.01,,2013-03-04 11:22:00,
2013-03-04 06:32:00,24.0,19.0,30.35,NW,322,0.0,0.0,82,0.00,,,0.01,,2013-03-04 11:32:00,
2013-03-04 06:42:00,24.0,19.0,30.35,NW,322,0.0,0.0,82,0.00,,,0.01,,2013-03-04 11:42:00,
2013-03-04 06:52:00,24.0,20.0,30.37,NW,323,0.0,0.0,83,0.00,,,0.01,,2013-03-04 11:52:00,
2013-03-04 07:01:00,24.0,20.0,30.37,NW,323,0.0,0.0,83,0.00,,,0.01,,2013-03-04 12:01:00,
2013-03-04 07:11:00,24.0,20.0,30.38,NW,323,0.0,0.0,83,0.00,,,0.01,,2013-03-04 12:11:00,
2013-03-04 07:22:00,24.0,20.0,30.38,NW,323,0.0,0.0,83,0.00,,,0.01,,2013-03-04 12:22:00,
2013-03-04 07:32:00,24.0,20.0,30.37,NW,322,0.0,1.0,83,0.00,,,0.01,,2013-03-04 12:32:00,
2013-03-04 07:42:00,24.0,20.0,30.37,NW,322,0.0,1.0,83,0.00,,,0.01,,2013-03-04 12:42:00,
2013-03-04 07:53:00,24.0,19.0,30.38,NW,322,0.0,0.0,82,0.00,,,0.01,,2013-03-04 12:53:00,
2013-03-04 08:02:00,24.0,20.0,30.38,NW,323,0.0,1.0,83,0.00,,,0.01,,2013-03-04 13:02:00,
2013-03-04 08:11:00,24.0,20.0,30.38,NW,323,0.0,1.0,83,0.00,,,0.01,,2013-03-04 13:11:00,
2013-03-04 08:21:00,25.0,21.0,30.37,NW,323,0.0,0.0,83,0.00,,,0.01,,2013-03-04 13:21:00,
2013-03-04 08:32:00,25.0,21.0,30.38,NW,323,0.0,0.0,83,0.00,,,0.01,,2013-03-04 13:32:00,
2013-03-04 08:42:00,25.0,21.0,30.38,NW,323,0.0,0.0,83,0.00,,,0.01,,2013-03-04 13:42:00,
2013-03-04 08:52:00,26.0,21.0,30.38,NW,323,0.0,0.0,82,0.00,,,0.01,,2013-03-04 13:52:00,
2013-03-04 09:01:00,27.0,22.0,30.38,ENE,76,0.0,1.0,81,0.00,,,0.01,,2013-03-04 14:01:00,
2013-03-04 09:11:00,27.0,22.0,30.38,ENE,76,0.0,1.0,81,0.00,,,0.01,,2013-03-04 14:11:00,
2013-03-04 09:22:00,30.0,22.0,30.38,ESE,111,0.0,2.0,71,0.00,,,0.01,,2013-03-04 14:22:00,
2013-03-04 09:32:00,32.0,22.0,30.38,ESE,111,0.0,2.0,67,0.00,,,0.01,,2013-03-04 14:32:00,
2013-03-04 09:42:00,32.0,22.0,30.38,ESE,111,0.0,2.0,67,0.00,,,0.01,,2013-03-04 14:42:00,
2013-03-04 09:52:00,34.0,22.0,30.38,ESE,111,0.0,2.0,61,0.00,,,0.01,,2013-03-04 14:52:00,
2013-03-04 10:01:00,36.0,21.0,30.38,East,99,0.0,3.0,55,0.00,,,0.01,,2013-03-04 15:01:00,
2013-03-04 10:11:00,36.0,21.0,30.38,East,99,0.0,3.0,55,0.00,,,0.01,,2013-03-04 15:11:00,
2013-03-04 10:22:00,38.0,19.0,30.37,ESE,121,0.0,3.0,46,0.00,,,0.01,,2013-03-04 15:22:00,
2013-03-04 10:32:00,40.0,20.0,30.36,East,101,0.0,2.0,44,0.00,,,0.01,,2013-03-04 15:32:00,
2013-03-04 10:42:00,40.0,20.0,30.36,East,101,0.0,2.0,44,0.00,,,0.01,,2013-03-04 15:42:00,
2013-03-04 10:52:00,42.0,21.0,30.36,SW,223,0.0,2.0,43,0.00,,,0.01,,2013-03-04 15:52:00,
2013-03-04 11:02:00,44.0,21.0,30.36,SSE,159,0.0,2.0,40,0.00,,,0.01,,2013-03-04 16:02:00,
2013-03-04 11:11:00,44.0,21.0,30.36,SSE,159,0.0,2.0,40,0.00,,,0.01,,2013-03-04 16:11:00,
2013-03-04 11:21:00,47.0,22.0,30.34,SE,131,1.0,2.0,37,0.00,,,0.01,,2013-03-04 16:21:00,
2013-03-04 11:32:00,49.0,23.0,30.33,SE,129,1.0,3.0,35,0.00,,,0.00,,2013-03-04 16:32:00,
2013-03-04 11:42:00,49.0,23.0,30.33,SE,129,1.0,3.0,35,0.00,,,0.00,,2013-03-04 16:42:00,
2013-03-04 11:52:00,51.0,22.0,30.33,ESE,123,1.0,3.0,32,0.00,,,0.00,,2013-03-04 16:52:00,
2013-03-04 12:02:00,52.0,25.0,30.32,SSE,165,2.0,5.0,34,0.00,,,0.00,,2013-03-04 17:02:00,
2013-03-04 12:11:00,52.0,25.0,30.32,SSE,165,2.0,5.0,34,0.00,,,0.00,,2013-03-04 17:11:00,
2013-03-04 12:22:00,53.0,25.0,30.30,WSW,242,4.0,9.0,34,0.00,,,0.00,,2013-03-04 17:22:00,
2013-03-04 12:32:00,54.0,25.0,30.29,WSW,248,3.0,10.0,32,0.00,,,0.00,,2013-03-04 17:32:00,
2013-03-04 12:42:00,54.0,25.0,30.29,WSW,248,3.0,10.0,32,0.00,,,0.00,,2013-03-04 17:42:00,
2013-03-04 12:52:00,57.0,27.0,30.28,WNW,282,1.0,7.0,31,0.00,,,0.00,,2013-03-04 17:52:00,
2013-03-04 13:01:00,58.0,28.0,30.27,NNW,333,2.0,3.0,32,0.00,,,0.00,,2013-03-04 18:01:00,
2013-03-04 13:11:00,58.0,28.0,30.27,NNW,333,2.0,3.0,32,0.00,,,0.00,,2013-03-04 18:11:00,
2013-03-04 13:22:00,59.0,27.0,30.26,WSW,247,3.0,7.0,29,0.00,,,0.00,,2013-03-04 18:22:00,
2013-03-04 13:32:00,60.0,28.0,30.26,WSW,239,2.0,7.0,29,0.00,,,0.00,,2013-03-04 18:32:00,
2013-03-04 13:42:00,60.0,28.0,30.26,WSW,239,2.0,7.0,29,0.00,,,0.00,,2013-03-04 18:42:00,
2013-03-04 13:52:00,58.0,28.0,30.25,SW,226,4.0,9.0,31,0.00,,,0.00,,2013-03-04 18:52:00,
2013-03-04 14:02:00,58.0,29.0,30.24,WSW,239,2.0,9.0,33,0.00,,,0.00,,2013-03-04 19:02:00,
2013-03-04 14:11:00,58.0,29.0,30.24,WSW,239,2.0,9.0,33,0.00,,,0.00,,2013-03-04 19:11:00,
2013-03-04 14:22:00,59.0,30.0,30.23,West,279,3.0,5.0,33,0.00,,,0.00,,2013-03-04 19:22:00,
2013-03-04 14:32:00,60.0,31.0,30.22,WNW,300,1.0,5.0,33,0.00,,,0.00,,2013-03-04 19:32:00,
2013-03-04 14:42:00,60.0,31.0,30.22,WNW,300,1.0,5.0,33,0.00,,,0.00,,2013-03-04 19:42:00,
2013-03-04 14:52:00,59.0,28.0,30.22,South,189,1.0,6.0,30,0.00,,,0.00,,2013-03-04 19:52:00,
2013-03-04 15:02:00,59.0,29.0,30.22,SSW,197,1.0,3.0,32,0.00,,,0.00,,2013-03-04 20:02:00,
2013-03-04 15:11:00,60.0,29.0,30.21,SSW,213,2.0,3.0,31,0.00,,,0.00,,2013-03-04 20:11:00,
2013-03-04 15:22:00,60.0,29.0,30.21,SSW,213,2.0,3.0,31,0.00,,,0.00,,2013-03-04 20:22:00,
2013-03-04 15:32:00,61.0,30.0,30.21,SW,220,1.0,3.0,31,0.00,,,0.00,,2013-03-04 20:32:00,
2013-03-04 15:42:00,61.0,30.0,30.21,SW,220,1.0,3.0,31,0.00,,,0.00,,2013-03-04 20:42:00,
2013-03-04 15:53:00,61.0,29.0,30.20,WSW,249,2.0,6.0,30,0.00,,,0.00,,2013-03-04 20:53:00,
2013-03-04 16:02:00,60.0,29.0,30.21,SSW,198,1.0,7.0,31,0.00,,,0.00,,2013-03-04 21:02:00,
2013-03-04 16:12:00,60.0,29.0,30.21,SSW,198,1.0,7.0,31,0.00,,,0.00,,2013-03-04 21:12:00,
2013-03-04 16:22:00,59.0,28.0,30.20,SSE,161,1.0,6.0,30,0.00,,,0.00,,2013-03-04 21:22:00,
2013-03-04 16:32:00,59.0,29.0,30.20,SW,227,0.0,6.0,32,0.00,,,0.00,,2013-03-04 21:32:00,
2013-03-04 16:42:00,59.0,29.0,30.20,SW,227,0.0,6.0,32,0.00,,,0.00,,2013-03-04 21:42:00,
2013-03-04 16:53:00,57.0,30.0,30.21,South,183,0.0,3.0,36,0.00,,,0.00,,2013-03-04 21:53:00,
2013-03-04 17:02:00,57.0,31.0,30.21,SSW,202,0.0,3.0,37,0.00,,,0.00,,2013-03-04 22:02:00,
2013-03-04 17:12:00,57.0,31.0,30.21,SSW,202,0.0,3.0,37,0.00,,,0.00,,2013-03-04 22:12:00,
2013-03-04 17:22:00,56.0,31.0,30.21,SSE,159,1.0,3.0,38,0.00,,,0.00,,2013-03-04 22:22:00,
2013-03-04 17:32:00,55.0,31.0,30.22,SSW,195,1.0,2.0,40,0.00,,,0.00,,2013-03-04 22:32:00,
2013-03-04 17:42:00,55.0,31.0,30.22,SSW,195,1.0,2.0,40,0.00,,,0.00,,2013-03-04 22:42:00,
2013-03-04 17:52:00,54.0,32.0,30.22,SSE,166,0.0,3.0,43,0.00,,,0.00,,2013-03-04 22:52:00,
2013-03-04 18:02:00,53.0,29.0,30.22,SSE,161,0.0,2.0,40,0.00,,,0.00,,2013-03-04 23:02:00,
2013-03-04 18:11:00,53.0,29.0,30.22,SSE,161,0.0,2.0,40,0.00,,,0.00,,2013-03-04 23:11:00,
2013-03-04 18:22:00,52.0,30.0,30.22,SSE,159,0.0,3.0,43,0.00,,,0.00,,2013-03-04 23:22:00,
2013-03-04 18:32:00,52.0,30.0,30.22,SSE,159,0.0,1.0,43,0.00,,,0.00,,2013-03-04 23:32:00,
2013-03-04 18:42:00,52.0,30.0,30.22,SSE,159,0.0,1.0,43,0.00,,,0.00,,2013-03-04 23:42:00,
2013-03-04 18:52:00,51.0,29.0,30.23,SSE,159,0.0,0.0,43,0.00,,,0.00,,2013-03-04 23:52:00,
2013-03-04 19:02:00,51.0,30.0,30.23,SSE,159,0.0,0.0,44,0.00,,,0.00,,2013-03-05 00:02:00,
2013-03-04 19:12:00,51.0,30.0,30.23,SSE,159,0.0,0.0,44,0.00,,,0.00,,2013-03-05 00:12:00,
2013-03-04 19:22:00,50.0,32.0,30.22,SSE,159,0.0,0.0,49,0.00,,,0.00,,2013-03-05 00:22:00,
2013-03-04 19:32:00,49.0,33.0,30.23,SSE,159,0.0,0.0,53,0.00,,,0.00,,2013-03-05 00:32:00,
2013-03-04 19:42:00,49.0,33.0,30.23,SSE,159,0.0,0.0,53,0.00,,,0.00,,2013-03-05 00:42:00,
2013-03-04 19:52:00,47.0,32.0,30.23,SSE,159,0.0,0.0,56,0.00,,,0.00,,2013-03-05 00:52:00,
2013-03-04 20:01:00,47.0,34.0,30.23,SSE,159,0.0,0.0,60,0.00,,,0.00,,2013-03-05 01:01:00,
2013-03-04 20:12:00,47.0,34.0,30.23,SSE,159,0.0,0.0,60,0.00,,,0.00,,2013-03-05 01:12:00,
2013-03-04 20:22:00,45.0,33.0,30.22,SSE,159,0.0,0.0,63,0.00,,,0.00,,2013-03-05 01:22:00,
2013-03-04 20:32:00,45.0,34.0,30.22,SSE,159,0.0,0.0,65,0.00,,,0.00,,2013-03-05 01:32:00,
2013-03-04 20:42:00,45.0,34.0,30.22,SSE,159,0.0,0.0,65,0.00,,,0.00,,2013-03-05 01:42:00,
2013-03-04 20:52:00,44.0,33.0,30.23,SW,223,0.0,2.0,64,0.00,,,0.00,,2013-03-05 01:52:00,
2013-03-04 21:01:00,43.0,32.0,30.24,SW,224,0.0,1.0,64,0.00,,,0.00,,2013-03-05 02:01:00,
2013-03-04 21:11:00,43.0,32.0,30.24,SW,224,0.0,1.0,64,0.00,,,0.00,,2013-03-05 02:11:00,
2013-03-04 21:22:00,43.0,33.0,30.25,SW,224,0.0,1.0,67,0.00,,,0.00,,2013-03-05 02:22:00,
2013-03-04 21:32:00,42.0,33.0,30.24,SW,224,0.0,2.0,69,0.00,,,0.00,,2013-03-05 02:32:00,
2013-03-04 21:42:00,42.0,33.0,30.24,SW,224,0.0,2.0,69,0.00,,,0.00,,2013-03-05 02:42:00,
2013-03-04 21:53:00,41.0,32.0,30.23,SW,224,0.0,1.0,71,0.00,,,0.00,,2013-03-05 02:53:00,
2013-03-04 22:02:00,41.0,32.0,30.23,West,276,0.0,3.0,70,0.00,,,0.00,,2013-03-05 03:02:00,
2013-03-04 22:12:00,39.0,31.0,30.24,West,276,0.0,1.0,72,0.00,,,0.00,,2013-03-05 03:12:00,
2013-03-04 22:22:00,39.0,31.0,30.24,West,276,0.0,1.0,72,0.00,,,0.00,,2013-03-05 03:22:00,
2013-03-04 22:32:00,39.0,31.0,30.24,West,277,0.0,1.0,74,0.00,,,0.00,,2013-03-05 03:32:00,
2013-03-04 22:42:00,39.0,31.0,30.24,West,277,0.0,1.0,74,0.00,,,0.00,,2013-03-05 03:42:00,
2013-03-04 22:52:00,38.0,31.0,30.22,West,277,1.0,2.0,76,0.00,,,0.00,,2013-03-05 03:52:00,
2013-03-04 23:02:00,38.0,31.0,30.22,West,276,0.0,1.0,76,0.00,,,0.00,,2013-03-05 04:02:00,
2013-03-04 23:12:00,38.0,31.0,30.22,West,276,0.0,1.0,76,0.00,,,0.00,,2013-03-05 04:12:00,
2013-03-04 23:22:00,37.0,31.0,30.23,West,277,0.0,2.0,78,0.00,,,0.00,,2013-03-05 04:22:00,
2013-03-04 23:32:00,37.0,31.0,30.22,West,277,0.0,1.0,78,0.00,,,0.00,,2013-03-05 04:32:00,
2013-03-04 23:42:00,37.0,31.0,30.22,West,277,0.0,1.0,78,0.00,,,0.00,,2013-03-05 04:42:00,
2013-03-04 23:52:00,37.0,31.0,30.22,West,277,0.0,1.0,79,0.00,,,0.00,,2013-03-05 04:52:00,